Location: Casilda
(33.0440°S, 61.1680°W)
Time: 09:59:00
(UTC-03:00)

ISS - Pass Details

Date: 13 August 2022
Orbit: 412 x 420 km, 51.6° (Epoch: 13 August)

Event Time Altitude Azimuth Distance (km) Brightness Sun altitude
Rises 20:42:43 0° 321° (NW) 2,349 0.6 -27.2°
Reaches altitude 10° 20:44:48 10° 324° (NW) 1,495 -0.6 -27.6°
Enters shadow 20:44:56 11° 324° (NW) 1,444 -0.7 -27.7°
